| time (UTC) | temp C | wind direction | speed KPH | gust KPH | rain 1hr cm | rain 24hr cm | rain mn cm | humidity % | barometer mb |
| 20260506010013 | 9 | 339 | 4.8 | 6.4 | 0.00 | 0.00 | 0.00 | 82 | 1013.3 |
| 20260506004512 | 9 | 336 | 3.2 | 6.4 | 0.00 | 0.00 | 0.00 | 82 | 1013.4 |
| 20260506003025 | 10 | 336 | 4.8 | 8.0 | 0.00 | 0.00 | 0.00 | 81 | 1013.4 |
| 20260506001512 | 10 | 338 | 4.8 | 8.0 | 0.00 | 0.00 | 0.00 | 81 | 1013.5 |
| 20260505234513 | 10 | 333 | 6.4 | 8.0 | 0.00 | 0.00 | 0.00 | 80 | 1013.4 |
| 20260505230014 | 10 | 342 | 4.8 | 6.4 | 0.00 | 0.00 | 0.00 | 78 | 1013.6 |
| 20260505224512 | 10 | 342 | 4.8 | 8.0 | 0.00 | 0.03 | 0.00 | 78 | 1013.7 |
| 20260505223013 | 10 | 350 | 4.8 | 9.7 | 0.00 | 0.03 | 0.00 | 77 | 1013.6 |
| 20260505221513 | 10 | 342 | 6.4 | 9.7 | 0.00 | 0.03 | 0.00 | 77 | 1013.6 |
| 20260505220024 | 10 | 326 | 4.8 | 8.0 | 0.00 | 0.03 | 0.00 | 76 | 1013.6 |
| 20260505214512 | 10 | 342 | 6.4 | 8.0 | 0.00 | 0.53 | 0.00 | 76 | 1013.8 |
| 20260505213013 | 10 | 355 | 3.2 | 8.0 | 0.00 | 0.53 | 0.00 | 76 | 1013.7 |
| 20260505211513 | 10 | 355 | 3.2 | 6.4 | 0.00 | 0.53 | 0.00 | 75 | 1013.8 |
| 20260505210024 | 10 | 5 | 6.4 | 8.0 | 0.00 | 0.53 | 0.00 | 74 | 1013.6 |
| 20260505204520 | 10 | 13 | 8.0 | 12.9 | 0.00 | 0.61 | 0.00 | 73 | 1013.6 |
| 20260505203022 | 11 | 14 | 6.4 | 12.9 | 0.00 | 0.61 | 0.00 | 73 | 1013.6 |
| 20260505201518 | 11 | 23 | 8.0 | 12.9 | 0.00 | 0.61 | 0.00 | 72 | 1013.4 |
| 20260505200016 | 12 | 24 | 11.3 | 16.1 | 0.00 | 0.61 | 0.00 | 71 | 1013.3 |
| 20260505194513 | 12 | 17 | 8.0 | 12.9 | 0.00 | 0.64 | 0.00 | 70 | 1013.3 |
| 20260505193025 | 12 | 33 | 11.3 | 17.7 | 0.00 | 0.64 | 0.00 | 68 | 1013.1 |
| 20260505191513 | 13 | 11 | 11.3 | 17.7 | 0.00 | 0.64 | 0.00 | 68 | 1013.0 |
| 20260505190014 | 13 | 19 | 16.1 | 22.5 | 0.00 | 0.64 | 0.00 | 65 | 1012.8 |
| 20260505183024 | 14 | 5 | 17.7 | 25.7 | 0.00 | 0.64 | 0.00 | 61 | 1012.6 |
| 20260505181516 | 13 | 349 | 11.3 | 19.3 | 0.00 | 0.64 | 0.00 | 62 | 1012.5 |
| 20260505180024 | 14 | 14 | 17.7 | 24.1 | 0.00 | 0.64 | 0.00 | 59 | 1012.5 |
| 20260505174516 | 15 | 5 | 17.7 | 24.1 | 0.00 | 0.64 | 0.00 | 57 | 1012.6 |
| 20260505173016 | 15 | 25 | 16.1 | 22.5 | 0.00 | 0.64 | 0.00 | 56 | 1012.6 |
| 20260505171522 | 16 | 355 | 16.1 | 22.5 | 0.00 | 0.64 | 0.00 | 51 | 1012.6 |
| 20260505164512 | 16 | 23 | 17.7 | 25.7 | 0.00 | 0.86 | 0.00 | 53 | 1012.7 |
| 20260505163025 | 16 | 5 | 17.7 | 27.4 | 0.00 | 0.86 | 0.00 | 51 | 1012.7 |
| 20260505161512 | 16 | 15 | 14.5 | 24.1 | 0.00 | 0.86 | 0.00 | 53 | 1012.7 |
| 20260505153013 | 16 | 34 | 17.7 | 25.7 | 0.00 | 0.86 | 0.00 | 57 | 1012.7 |
| 20260505151512 | 16 | 14 | 17.7 | 27.4 | 0.00 | 0.86 | 0.00 | 56 | 1012.8 |
| 20260505124512 | 15 | 44 | 14.5 | 25.7 | 0.00 | 0.86 | 0.00 | 67 | 1013.5 |
| 20260505123014 | 15 | 9 | 19.3 | 27.4 | 0.00 | 0.86 | 0.00 | 64 | 1013.6 |
| 20260505121513 | 15 | 55 | 14.5 | 25.7 | 0.00 | 0.86 | 0.00 | 65 | 1013.6 |
| 20260505120022 | 15 | 338 | 16.1 | 24.1 | 0.00 | 0.86 | 0.00 | 65 | 1013.6 |
| 20260505114512 | 14 | 45 | 19.3 | 29.0 | 0.00 | 0.86 | 0.00 | 66 | 1013.6 |
| 20260505111512 | 13 | 49 | 16.1 | 24.1 | 0.00 | 0.86 | 0.00 | 72 | 1013.8 |
| 20260505101512 | 12 | 34 | 16.1 | 22.5 | 0.00 | 0.86 | 0.00 | 76 | 1014.1 |
| 20260505100014 | 12 | 44 | 12.9 | 19.3 | 0.00 | 0.86 | 0.00 | 79 | 1014.2 |
| 20260505094514 | 11 | 36 | 14.5 | 20.9 | 0.00 | 0.86 | 0.00 | 81 | 1014.2 |
| 20260505093020 | 11 | 48 | 14.5 | 20.9 | 0.00 | 0.86 | 0.00 | 81 | 1014.2 |
| 20260505091513 | 11 | 45 | 19.3 | 29.0 | 0.00 | 0.86 | 0.00 | 79 | 1014.1 |
| 20260505090013 | 12 | 37 | 19.3 | 27.4 | 0.00 | 0.86 | 0.00 | 80 | 1014.1 |
| 20260505084512 | 11 | 16 | 16.1 | 22.5 | 0.00 | 0.86 | 0.00 | 84 | 1014.3 |
| 20260505083013 | 11 | 38 | 16.1 | 20.9 | 0.00 | 0.86 | 0.00 | 87 | 1014.4 |
| 20260505081512 | 11 | 30 | 16.1 | 24.1 | 0.00 | 0.86 | 0.00 | 90 | 1014.4 |
| 20260505074513 | 10 | 26 | 11.3 | 16.1 | 0.00 | 0.86 | 0.00 | 94 | 1014.5 |
| 20260505073029 | 10 | 5 | 11.3 | 17.7 | 0.00 | 0.86 | 0.00 | 95 | 1014.4 |
| 20260505071710 | 10 | 5 | 9.7 | 14.5 | 0.00 | 0.86 | 0.00 | 95 | 1014.4 |
| 20260505070047 | 9 | 30 | 9.7 | 14.5 | 0.00 | 0.86 | 0.00 | 95 | 1014.4 |
| 20260505064516 | 9 | 32 | 9.7 | 16.1 | 0.00 | 0.86 | 0.00 | 95 | 1014.5 |
| 20260505063025 | 9 | 27 | 6.4 | 9.7 | 0.00 | 0.86 | 0.00 | 95 | 1014.4 |
| 20260505061518 | 9 | 5 | 3.2 | 6.4 | 0.00 | 0.86 | 0.00 | 95 | 1014.3 |
| 20260505060023 | 8 | 19 | 3.2 | 6.4 | 0.00 | 0.86 | 0.00 | 95 | 1014.2 |
| 20260505054519 | 8 | 30 | 0.0 | 1.6 | 0.00 | 0.86 | 0.00 | 95 | 1014.2 |
| 20260505053013 | 8 | 30 | 1.6 | 4.8 | 0.00 | 0.86 | 0.00 | 95 | 1014.2 |
| 20260505051512 | 8 | 26 | 3.2 | 6.4 | 0.00 | 0.86 | 0.00 | 95 | 1014.2 |
| 20260505041513 | 9 | 57 | 4.8 | 8.0 | 0.00 | 0.86 | 0.00 | 95 | 1014.1 |
| 20260505040021 | 9 | 0.0 | 0.0 | 0.00 | 0.86 | 0.00 | 95 | 1014.0 | |
| 20260505034513 | 9 | 0.0 | 0.0 | 0.00 | 0.86 | 0.00 | 95 | 1014.1 | |
| 20260505033013 | 9 | 0.0 | 0.0 | 0.00 | 0.86 | 0.00 | 95 | 1014.0 | |
| 20260505031514 | 9 | 0.0 | 0.0 | 0.00 | 0.86 | 0.00 | 94 | 1014.1 | |
| 20260505030014 | 9 | 5 | 1.6 | 8.0 | 0.00 | 0.86 | 0.00 | 94 | 1014.0 |
| 20260505024513 | 10 | 5 | 3.2 | 8.0 | 0.00 | 0.86 | 0.00 | 94 | 1014.0 |
| 20260505023013 | 10 | 11 | 6.4 | 9.7 | 0.00 | 0.86 | 0.00 | 94 | 1014.0 |
| 20260505021512 | 10 | 346 | 6.4 | 9.7 | 0.00 | 0.86 | 0.00 | 95 | 1014.2 |
| 20260505020022 | 10 | 333 | 0.0 | 0.0 | 0.00 | 0.86 | 0.00 | 94 | 1014.3 |
| 20260505014515 | 10 | 62 | 0.0 | 0.0 | 0.00 | 0.86 | 0.00 | 95 | 1014.3 |
| 20260505013021 | 10 | 62 | 1.6 | 3.2 | 0.00 | 0.86 | 0.00 | 94 | 1014.4 |
| 20260505011514 | 10 | 62 | 3.2 | 4.8 | 0.00 | 0.86 | 0.00 | 94 | 1014.6 |